Flag Weather past 2 weeks in Dinslaken, North Rhine-Westphalia, Germany

Now
57 °F

Overcast.


Feels Like: 56 °F
Forecast: 40 / 49 °F
Wind: 6 mph from Southeast

Location: Essen

Current Time: Nov 23, 2014 at 3:45:01 PM

Latest Report: Nov 23, 2014 at 3:00 PM


Visibility: 22 mi

Pressure: 29.99 "Hg

Humidity: 74%

Dew point: 49 °F

Location of DinslakenLocation

Historic Weather in Dinslaken — Graph

°F

Dinslaken temperature yesterday

Maximum temperature yesterday: 52 °F (at 11:00 PM)
Minimum temperature yesterday: 39 °F (at 2:00 AM)
Average temperature yesterday: 47 °F

Past Weeks' High & Low Weather Summary

 TemperatureHumidityPressure
High59 °F (Nov 23, 2:00 PM)100% (Nov 11, 7:00 AM)30.35 "Hg (Nov 11, 7:00 AM)
Low35 °F (Nov 21, 8:00 AM)63% (Nov 9, 2:00 PM)29.50 "Hg (Nov 16, 3:00 PM)
Average48 °F88%29.87 "Hg
* Reported Nov 8 3:00 PM — Nov 23 3:00 PM, Dinslaken, Weather by CustomWeather, © 2014

Note: Actual official high and low records may vary slightly from our data, if they occured in-between our weather recording intervals... More about our weather records

Advertising

Dinslaken weather history for previous 24 hours

 ConditionsComfort  
Time TempWeatherWind HumidityBarometerVisibility
3:00 PM
Nov 23
57 °FOvercast.6 mph74%29.99 "Hg22 mi
2:00 PM59 °FPartly sunny.5 mph69%30.01 "Hg16 mi
1:00 PM58 °FPartly sunny.5 mph70%30.04 "Hg16 mi
12:00 PM57 °FOvercast.6 mph73%30.07 "Hg16 mi
11:00 AM55 °FScattered clouds.6 mph72%30.08 "Hg18 mi
10:00 AM54 °FOvercast.5 mph74%30.08 "Hg19 mi
9:00 AM53 °FOvercast.6 mph78%30.08 "Hg17 mi
8:00 AM52 °FPassing clouds.3 mph82%30.08 "Hg18 mi
7:00 AM52 °FOvercast.5 mph83%30.07 "Hg15 mi
6:00 AM52 °FOvercast.3 mph83%30.08 "Hg13 mi
5:00 AM52 °FOvercast.3 mph84%30.08 "Hg12 mi
4:00 AM51 °FOvercast.3 mph85%30.08 "Hg11 mi
3:00 AM51 °FOvercast.3 mph85%30.09 "Hg11 mi
2:00 AM51 °FOvercast.5 mph84%30.09 "Hg11 mi
1:00 AM51 °FOvercast.3 mph84%30.09 "Hg11 mi
12:00 AM51 °FOvercast.5 mph82%30.09 "Hg11 mi
11:00 PM
Nov 22
52 °FOvercast.6 mph81%30.09 "Hg11 mi
10:00 PM51 °FOvercast.5 mph82%30.08 "Hg11 mi
9:00 PM51 °FOvercast.5 mph81%30.07 "Hg10 mi
8:00 PM50 °FOvercast.5 mph83%30.07 "Hg9 mi
7:00 PM51 °FPassing clouds.5 mph84%30.07 "Hg9 mi
6:00 PM50 °FClear.5 mph87%30.06 "Hg7 mi
5:00 PM51 °FPassing clouds.3 mph84%30.07 "Hg8 mi
4:00 PM51 °FPassing clouds.3 mph83%30.06 "Hg7 mi
3:00 PM51 °FSunny.5 mph81%30.07 "Hg9 mi
Weather by CustomWeather, © 2014

See weather overviewHow to use our weather pages